| time (UTC) | temp F | wind direction | speed knots | gust knots | rain 1hr in | rain 24hr in | rain mn in | humidity % | barometer mb |
| 20260505140525 | 52 | 278 | 3.5 | 3.5 | 0.00 | 0.00 | 0.00 | 56 | 1006.4 |
| 20260505124938 | 51 | 303 | 0.0 | 2.6 | 0.00 | 0.00 | 0.00 | 58 | 1005.8 |
| 20260505124435 | 51 | 306 | 1.7 | 1.7 | 0.00 | 0.00 | 0.00 | 59 | 1006.2 |
| 20260505123931 | 51 | 70 | 0.0 | 1.7 | 0.00 | 0.00 | 0.00 | 59 | 1005.3 |
| 20260505123428 | 51 | 107 | 0.9 | 2.6 | 0.00 | 0.00 | 0.00 | 59 | 1005.3 |
| 20260505122923 | 52 | 148 | 1.7 | 1.7 | 0.00 | 0.00 | 0.00 | 58 | 1004.9 |
| 20260505122421 | 51 | 43 | 0.0 | 0.9 | 0.00 | 0.00 | 0.00 | 59 | 1004.9 |
| 20260505121917 | 50 | 45 | 1.7 | 1.7 | 0.00 | 0.00 | 0.00 | 59 | 1005.0 |
| 20260505121415 | 50 | 81 | 2.6 | 2.6 | 0.00 | 0.00 | 0.00 | 58 | 1005.0 |
| 20260505120910 | 50 | 34 | 0.0 | 3.5 | 0.00 | 0.00 | 0.00 | 58 | 1005.2 |
| 20260505120407 | 50 | 45 | 0.0 | 1.7 | 0.00 | 0.00 | 0.00 | 58 | 1005.1 |
| 20260505115906 | 50 | 56 | 0.9 | 5.2 | 0.00 | 0.00 | 0.00 | 56 | 1005.0 |
| 20260505115403 | 50 | 32 | 0.9 | 0.9 | 0.00 | 0.00 | 0.00 | 56 | 1005.0 |
| 20260505114901 | 50 | 25 | 1.7 | 1.7 | 0.00 | 0.00 | 0.00 | 56 | 1004.6 |
| 20260505114357 | 50 | 26 | 1.7 | 1.7 | 0.00 | 0.00 | 0.00 | 57 | 1004.6 |
| 20260505113853 | 51 | 18 | 0.9 | 2.6 | 0.00 | 0.00 | 0.00 | 55 | 1004.3 |
| 20260505113350 | 52 | 34 | 1.7 | 6.1 | 0.00 | 0.00 | 0.00 | 57 | 1004.2 |
| 20260505112845 | 52 | 28 | 2.6 | 3.5 | 0.00 | 0.00 | 0.00 | 63 | 1004.4 |
| 20260505112344 | 52 | 271 | 3.5 | 3.5 | 0.00 | 0.00 | 0.00 | 60 | 1004.3 |
| 20260505111839 | 52 | 285 | 1.7 | 3.5 | 0.00 | 0.00 | 0.00 | 61 | 1004.1 |
| 20260505111334 | 52 | 308 | 3.5 | 5.2 | 0.00 | 0.00 | 0.00 | 60 | 1003.6 |
| 20260505110831 | 52 | 282 | 2.6 | 2.6 | 0.00 | 0.00 | 0.00 | 62 | 1003.4 |
| 20260505110328 | 52 | 273 | 1.7 | 5.2 | 0.00 | 0.00 | 0.00 | 61 | 1003.5 |
| 20260505101803 | 53 | 282 | 1.7 | 3.5 | 0.00 | 0.00 | 0.00 | 61 | 1002.8 |
| 20260505101258 | 53 | 285 | 4.3 | 6.1 | 0.00 | 0.00 | 0.00 | 61 | 1002.9 |
| 20260505100755 | 54 | 277 | 2.6 | 5.2 | 0.00 | 0.00 | 0.00 | 62 | 1002.5 |
| 20260505100251 | 54 | 261 | 3.5 | 7.0 | 0.00 | 0.00 | 0.00 | 61 | 1002.2 |
| 20260505095747 | 54 | 278 | 1.7 | 3.5 | 0.00 | 0.00 | 0.00 | 63 | 1002.2 |
| 20260505095245 | 54 | 282 | 1.7 | 5.2 | 0.00 | 0.00 | 0.00 | 63 | 1002.4 |
| 20260505094740 | 54 | 236 | 4.3 | 5.2 | 0.00 | 0.00 | 0.00 | 63 | 1002.5 |
| 20260505094237 | 54 | 268 | 5.2 | 6.1 | 0.00 | 0.00 | 0.00 | 62 | 1002.4 |
| 20260505093733 | 54 | 279 | 4.3 | 7.0 | 0.00 | 0.00 | 0.00 | 63 | 1002.2 |
| 20260505093231 | 54 | 266 | 4.3 | 6.1 | 0.00 | 0.00 | 0.00 | 64 | 1001.9 |
| 20260505092728 | 54 | 256 | 4.3 | 6.1 | 0.00 | 0.00 | 0.00 | 64 | 1001.9 |
| 20260505092226 | 54 | 266 | 2.6 | 7.8 | 0.00 | 0.00 | 0.00 | 64 | 1001.7 |
| 20260505091723 | 54 | 247 | 3.5 | 3.5 | 0.00 | 0.00 | 0.00 | 64 | 1001.7 |
| 20260505091221 | 54 | 288 | 5.2 | 6.1 | 0.00 | 0.00 | 0.00 | 64 | 1001.7 |
| 20260505090718 | 55 | 300 | 3.5 | 5.2 | 0.00 | 0.00 | 0.00 | 64 | 1001.8 |
| 20260505090217 | 55 | 282 | 3.5 | 5.2 | 0.00 | 0.00 | 0.00 | 64 | 1001.5 |
| 20260505085714 | 55 | 285 | 3.5 | 3.5 | 0.00 | 0.00 | 0.00 | 64 | 1001.7 |
| 20260505085212 | 55 | 268 | 2.6 | 7.0 | 0.00 | 0.00 | 0.00 | 62 | 1001.3 |
| 20260505084709 | 55 | 270 | 2.6 | 5.2 | 0.00 | 0.00 | 0.00 | 61 | 1001.2 |
| 20260505084208 | 55 | 282 | 4.3 | 6.1 | 0.00 | 0.00 | 0.00 | 60 | 1001.4 |
| 20260505083704 | 55 | 284 | 2.6 | 5.2 | 0.00 | 0.00 | 0.00 | 59 | 1001.3 |
| 20260505083201 | 56 | 264 | 4.3 | 5.2 | 0.00 | 0.00 | 0.00 | 58 | 1001.0 |
| 20260505082657 | 56 | 256 | 4.3 | 5.2 | 0.00 | 0.00 | 0.00 | 57 | 1001.2 |
| 20260505082154 | 56 | 274 | 5.2 | 6.1 | 0.00 | 0.00 | 0.00 | 55 | 1001.1 |
| 20260505081650 | 56 | 278 | 3.5 | 5.2 | 0.00 | 0.00 | 0.00 | 55 | 1000.9 |
| 20260505081148 | 57 | 287 | 4.3 | 6.1 | 0.00 | 0.00 | 0.00 | 55 | 1001.1 |
| 20260505080645 | 57 | 235 | 1.7 | 6.1 | 0.00 | 0.00 | 0.00 | 55 | 1000.7 |
| 20260505080140 | 57 | 260 | 6.1 | 8.7 | 0.00 | 0.00 | 0.00 | 54 | 1000.9 |
| 20260505075637 | 57 | 276 | 2.6 | 5.2 | 0.00 | 0.00 | 0.00 | 56 | 1000.7 |
| 20260505075133 | 57 | 294 | 3.5 | 7.0 | 0.00 | 0.00 | 0.00 | 55 | 1000.9 |
| 20260505074630 | 58 | 293 | 1.7 | 2.6 | 0.00 | 0.00 | 0.00 | 57 | 1000.5 |
| 20260505074127 | 58 | 307 | 2.6 | 6.1 | 0.00 | 0.00 | 0.00 | 58 | 1000.7 |
| 20260505073625 | 58 | 307 | 5.2 | 6.1 | 0.00 | 0.00 | 0.00 | 59 | 1000.5 |
| 20260505073123 | 58 | 287 | 0.9 | 6.1 | 0.00 | 0.00 | 0.00 | 63 | 1000.3 |
| 20260505072618 | 58 | 287 | 2.6 | 6.1 | 0.00 | 0.00 | 0.00 | 64 | 1000.4 |
| 20260505072115 | 59 | 302 | 1.7 | 6.1 | 0.00 | 0.00 | 0.00 | 65 | 1000.6 |
| 20260505071610 | 59 | 274 | 3.5 | 5.2 | 0.00 | 0.00 | 0.00 | 66 | 1000.2 |
| 20260505071109 | 59 | 273 | 4.3 | 9.6 | 0.00 | 0.00 | 0.00 | 67 | 1000.2 |
| 20260505070606 | 59 | 244 | 5.2 | 7.0 | 0.00 | 0.00 | 0.00 | 69 | 1000.4 |
| 20260505065558 | 59 | 273 | 1.7 | 5.2 | 0.00 | 0.00 | 0.00 | 73 | 1000.0 |
| 20260505065055 | 59 | 213 | 5.2 | 6.1 | 0.00 | 0.00 | 0.00 | 73 | 1000.1 |
| 20260505064551 | 59 | 232 | 3.5 | 6.1 | 0.00 | 0.00 | 0.00 | 74 | 1000.3 |
| 20260505064050 | 59 | 218 | 4.3 | 7.0 | 0.00 | 0.00 | 0.00 | 73 | 1000.0 |
| 20260505063547 | 60 | 216 | 7.0 | 8.7 | 0.00 | 0.00 | 0.00 | 73 | 1000.2 |
| 20260505063043 | 60 | 259 | 4.3 | 5.2 | 0.00 | 0.00 | 0.00 | 72 | 1000.3 |
| 20260505062539 | 60 | 251 | 3.5 | 6.1 | 0.00 | 0.00 | 0.00 | 72 | 1000.2 |
| 20260505062037 | 60 | 241 | 6.1 | 7.0 | 0.00 | 0.00 | 0.00 | 71 | 1000.2 |
| 20260505061534 | 60 | 257 | 4.3 | 5.2 | 0.00 | 0.00 | 0.00 | 71 | 1000.0 |
| 20260505061032 | 60 | 236 | 3.5 | 6.1 | 0.00 | 0.00 | 0.00 | 71 | 1000.0 |
| 20260505060529 | 61 | 256 | 3.5 | 5.2 | 0.00 | 0.00 | 0.00 | 70 | 999.4 |
| 20260505060026 | 61 | 259 | 4.3 | 5.2 | 0.00 | 0.00 | 0.00 | 70 | 999.6 |
| 20260505055521 | 61 | 282 | 6.1 | 7.8 | 0.00 | 0.00 | 0.00 | 69 | 999.7 |
| 20260505055018 | 61 | 282 | 4.3 | 8.7 | 0.00 | 0.00 | 0.00 | 69 | 999.5 |
| 20260505054516 | 62 | 280 | 3.5 | 6.1 | 0.00 | 0.00 | 0.00 | 69 | 999.7 |
| 20260505054014 | 62 | 267 | 7.0 | 9.6 | 0.00 | 0.00 | 0.00 | 68 | 999.7 |
| 20260505053510 | 62 | 259 | 7.8 | 8.7 | 0.00 | 0.00 | 0.00 | 67 | 999.9 |
| 20260505053007 | 62 | 250 | 7.8 | 8.7 | 0.00 | 0.00 | 0.00 | 67 | 999.9 |
| 20260505052504 | 62 | 251 | 8.7 | 8.7 | 0.00 | 0.00 | 0.00 | 66 | 999.7 |
| 20260505052001 | 63 | 234 | 7.8 | 7.8 | 0.00 | 0.00 | 0.00 | 66 | 999.6 |
| 20260505051458 | 63 | 226 | 10.4 | 12.2 | 0.00 | 0.00 | 0.00 | 65 | 999.6 |
| 20260505050956 | 63 | 220 | 10.4 | 15.6 | 0.00 | 0.00 | 0.00 | 64 | 999.6 |
| 20260505050454 | 64 | 314 | 7.0 | 8.7 | 0.00 | 0.00 | 0.00 | 63 | 999.8 |
| 20260505041422 | 65 | 218 | 7.8 | 12.2 | 0.00 | 0.00 | 0.00 | 60 | 999.3 |
| 20260505040919 | 65 | 227 | 6.1 | 9.6 | 0.00 | 0.00 | 0.00 | 60 | 999.0 |
| 20260505040416 | 65 | 239 | 7.0 | 13.9 | 0.00 | 0.00 | 0.00 | 59 | 999.0 |
| 20260505035913 | 65 | 211 | 9.6 | 13.0 | 0.00 | 0.00 | 0.00 | 58 | 999.2 |
| 20260505035409 | 66 | 242 | 6.1 | 9.6 | 0.00 | 0.00 | 0.00 | 57 | 998.9 |
| 20260505034906 | 66 | 236 | 7.0 | 9.6 | 0.00 | 0.00 | 0.00 | 54 | 998.8 |
| 20260505034403 | 66 | 245 | 7.0 | 9.6 | 0.00 | 0.00 | 0.00 | 53 | 998.9 |
| 20260505033900 | 66 | 290 | 7.8 | 11.3 | 0.00 | 0.00 | 0.00 | 53 | 999.4 |
| 20260505033357 | 66 | 286 | 3.5 | 7.0 | 0.00 | 0.00 | 0.00 | 54 | 999.4 |
| 20260505032855 | 66 | 285 | 7.8 | 11.3 | 0.00 | 0.00 | 0.00 | 53 | 998.5 |
| 20260505032351 | 66 | 229 | 8.7 | 19.1 | 0.00 | 0.00 | 0.00 | 52 | 998.2 |
| 20260505031848 | 66 | 220 | 7.8 | 14.8 | 0.00 | 0.00 | 0.00 | 52 | 998.3 |
| 20260505031345 | 66 | 248 | 11.3 | 14.8 | 0.00 | 0.00 | 0.00 | 52 | 998.0 |
| 20260505030842 | 66 | 251 | 9.6 | 12.2 | 0.00 | 0.00 | 0.00 | 55 | 997.7 |
| 20260505030338 | 67 | 223 | 11.3 | 15.6 | 0.00 | 0.00 | 0.00 | 56 | 997.3 |
| 20260505025833 | 67 | 212 | 7.0 | 13.9 | 0.00 | 0.00 | 0.00 | 56 | 997.4 |
| 20260505025331 | 67 | 254 | 7.0 | 8.7 | 0.00 | 0.00 | 0.00 | 58 | 997.7 |
| 20260505024830 | 68 | 196 | 9.6 | 13.9 | 0.00 | 0.00 | 0.00 | 55 | 997.7 |
| 20260505024327 | 68 | 173 | 12.2 | 14.8 | 0.00 | 0.00 | 0.00 | 54 | 998.0 |
| 20260505023824 | 68 | 300 | 11.3 | 13.9 | 0.00 | 0.00 | 0.00 | 57 | 998.3 |
| 20260505023321 | 68 | 219 | 9.6 | 14.8 | 0.00 | 0.00 | 0.00 | 58 | 998.2 |
| 20260505022818 | 68 | 276 | 9.6 | 14.8 | 0.00 | 0.00 | 0.00 | 58 | 998.3 |
| 20260505022315 | 68 | 246 | 7.0 | 13.0 | 0.00 | 0.00 | 0.00 | 57 | 998.2 |
| 20260505021812 | 68 | 235 | 12.2 | 13.0 | 0.00 | 0.00 | 0.00 | 57 | 997.8 |
| 20260505021309 | 68 | 238 | 12.2 | 16.5 | 0.00 | 0.00 | 0.00 | 56 | 997.7 |
| 20260505020805 | 68 | 234 | 7.0 | 14.8 | 0.00 | 0.00 | 0.00 | 55 | 997.5 |
| 20260505020300 | 69 | 206 | 7.0 | 12.2 | 0.00 | 0.00 | 0.00 | 55 | 997.9 |
| 20260505015758 | 69 | 218 | 7.0 | 13.9 | 0.00 | 0.00 | 0.00 | 54 | 997.9 |
| 20260505015255 | 68 | 247 | 7.8 | 9.6 | 0.00 | 0.00 | 0.00 | 54 | 998.0 |
| 20260505014752 | 68 | 249 | 10.4 | 12.2 | 0.00 | 0.00 | 0.00 | 53 | 998.0 |
| 20260505014249 | 68 | 225 | 7.8 | 11.3 | 0.00 | 0.00 | 0.00 | 52 | 998.0 |
| 20260505013745 | 68 | 226 | 7.8 | 8.7 | 0.00 | 0.00 | 0.00 | 51 | 997.9 |
| 20260505013242 | 68 | 221 | 7.8 | 13.0 | 0.00 | 0.00 | 0.00 | 49 | 997.9 |
| 20260505012740 | 68 | 226 | 6.1 | 7.0 | 0.00 | 0.00 | 0.00 | 47 | 997.5 |
| 20260505012238 | 67 | 233 | 7.8 | 9.6 | 0.00 | 0.00 | 0.00 | 46 | 997.5 |
| 20260505011733 | 67 | 202 | 3.5 | 7.0 | 0.00 | 0.00 | 0.00 | 46 | 997.4 |
| 20260505011231 | 67 | 218 | 3.5 | 7.0 | 0.00 | 0.00 | 0.00 | 45 | 997.1 |
| 20260505010726 | 68 | 250 | 3.5 | 6.1 | 0.00 | 0.00 | 0.00 | 44 | 997.3 |
| 20260505010223 | 68 | 296 | 3.5 | 7.8 | 0.00 | 0.00 | 0.00 | 44 | 997.3 |
| 20260505005719 | 68 | 209 | 4.3 | 6.1 | 0.00 | 0.00 | 0.00 | 43 | 997.1 |
| 20260505005216 | 68 | 220 | 5.2 | 7.0 | 0.00 | 0.00 | 0.00 | 43 | 997.3 |
| 20260505004714 | 68 | 230 | 3.5 | 7.8 | 0.00 | 0.00 | 0.00 | 43 | 997.0 |
| 20260505004210 | 68 | 224 | 3.5 | 7.0 | 0.00 | 0.00 | 0.00 | 43 | 997.2 |
| 20260505003707 | 69 | 219 | 3.5 | 6.1 | 0.00 | 0.00 | 0.00 | 42 | 996.9 |
| 20260505003205 | 69 | 226 | 3.5 | 7.0 | 0.00 | 0.00 | 0.00 | 42 | 997.0 |
| 20260505002701 | 69 | 230 | 3.5 | 7.0 | 0.00 | 0.00 | 0.00 | 41 | 997.1 |
| 20260505002159 | 70 | 212 | 5.2 | 7.8 | 0.00 | 0.00 | 0.00 | 40 | 997.1 |
| 20260505001655 | 71 | 229 | 5.2 | 6.1 | 0.00 | 0.00 | 0.00 | 40 | 997.1 |
| 20260505001153 | 71 | 209 | 5.2 | 6.1 | 0.00 | 0.00 | 0.00 | 39 | 997.2 |
| 20260505000650 | 72 | 216 | 6.1 | 11.3 | 0.00 | 0.00 | 0.00 | 37 | 997.2 |
| 20260505000148 | 73 | 250 | 5.2 | 8.7 | 0.00 | 0.00 | 0.00 | 36 | 997.5 |
| 20260504235644 | 73 | 246 | 8.7 | 9.6 | 0.00 | 0.00 | 0.00 | 36 | 997.3 |
| 20260504235140 | 73 | 219 | 4.3 | 8.7 | 0.00 | 0.00 | 0.00 | 35 | 997.6 |
| 20260504234638 | 73 | 221 | 4.3 | 6.1 | 0.00 | 0.00 | 0.00 | 35 | 997.5 |
| 20260504234135 | 73 | 213 | 5.2 | 7.0 | 0.00 | 0.00 | 0.00 | 35 | 997.4 |
| 20260504233631 | 74 | 227 | 9.6 | 11.3 | 0.00 | 0.00 | 0.00 | 34 | 997.6 |
| 20260504233127 | 74 | 256 | 9.6 | 12.2 | 0.00 | 0.00 | 0.00 | 34 | 997.7 |
| 20260504232625 | 73 | 240 | 7.0 | 7.8 | 0.00 | 0.00 | 0.00 | 33 | 997.8 |
| 20260504232122 | 73 | 212 | 5.2 | 8.7 | 0.00 | 0.00 | 0.00 | 33 | 997.8 |
| 20260504231618 | 74 | 265 | 9.6 | 11.3 | 0.00 | 0.00 | 0.00 | 33 | 998.0 |
| 20260504231115 | 74 | 285 | 6.1 | 13.0 | 0.00 | 0.00 | 0.00 | 33 | 998.0 |
| 20260504230610 | 74 | 293 | 7.0 | 13.0 | 0.00 | 0.00 | 0.00 | 32 | 998.1 |
| 20260504230110 | 75 | 255 | 7.8 | 16.5 | 0.00 | 0.00 | 0.00 | 32 | 998.0 |
| 20260504225607 | 75 | 275 | 8.7 | 15.6 | 0.00 | 0.00 | 0.00 | 31 | 998.1 |
| 20260504225104 | 75 | 239 | 7.0 | 16.5 | 0.00 | 0.00 | 0.00 | 32 | 998.2 |
| 20260504224600 | 75 | 190 | 6.1 | 9.6 | 0.00 | 0.00 | 0.00 | 31 | 998.4 |
| 20260504224057 | 75 | 267 | 8.7 | 20.0 | 0.00 | 0.00 | 0.00 | 29 | 998.2 |
| 20260504223554 | 75 | 242 | 7.0 | 11.3 | 0.00 | 0.00 | 0.00 | 29 | 998.3 |
| 20260504223050 | 75 | 235 | 10.4 | 20.0 | 0.00 | 0.00 | 0.00 | 28 | 998.3 |
| 20260504222547 | 75 | 249 | 10.4 | 23.5 | 0.00 | 0.00 | 0.00 | 28 | 998.5 |
| 20260504222044 | 75 | 219 | 15.6 | 21.7 | 0.00 | 0.00 | 0.00 | 28 | 998.3 |
| 20260504221542 | 75 | 257 | 3.5 | 9.6 | 0.00 | 0.00 | 0.00 | 30 | 998.6 |
| 20260504221038 | 75 | 285 | 8.7 | 13.9 | 0.00 | 0.00 | 0.00 | 30 | 998.6 |
| 20260504220534 | 75 | 277 | 5.2 | 8.7 | 0.00 | 0.00 | 0.00 | 30 | 998.8 |
| 20260504220032 | 75 | 275 | 16.5 | 20.0 | 0.00 | 0.00 | 0.00 | 29 | 998.7 |
| 20260504215528 | 75 | 280 | 13.9 | 23.5 | 0.00 | 0.00 | 0.00 | 28 | 998.7 |
| 20260504215026 | 75 | 287 | 15.6 | 19.1 | 0.00 | 0.00 | 0.00 | 30 | 998.9 |
| 20260504214522 | 75 | 267 | 9.6 | 22.6 | 0.00 | 0.00 | 0.00 | 29 | 998.8 |
| 20260504214018 | 75 | 287 | 7.8 | 14.8 | 0.00 | 0.00 | 0.00 | 28 | 999.0 |
| 20260504213514 | 75 | 252 | 14.8 | 21.7 | 0.00 | 0.00 | 0.00 | 28 | 999.0 |
| 20260504213012 | 75 | 281 | 13.0 | 20.0 | 0.00 | 0.00 | 0.00 | 27 | 999.2 |
| 20260504212508 | 75 | 251 | 7.8 | 20.0 | 0.00 | 0.00 | 0.00 | 28 | 999.3 |
| 20260504212005 | 76 | 289 | 14.8 | 20.0 | 0.00 | 0.00 | 0.00 | 29 | 999.2 |
| 20260504211502 | 76 | 288 | 10.4 | 13.9 | 0.00 | 0.00 | 0.00 | 28 | 998.9 |
| 20260504210959 | 75 | 273 | 9.6 | 14.8 | 0.00 | 0.00 | 0.00 | 29 | 999.3 |
| 20260504210456 | 75 | 328 | 13.0 | 14.8 | 0.00 | 0.00 | 0.00 | 28 | 999.2 |
| 20260504205953 | 76 | 257 | 10.4 | 13.0 | 0.00 | 0.00 | 0.00 | 28 | 999.0 |
| 20260504205450 | 75 | 270 | 8.7 | 19.1 | 0.00 | 0.00 | 0.00 | 30 | 999.0 |
| 20260504204948 | 75 | 273 | 14.8 | 22.6 | 0.00 | 0.00 | 0.00 | 28 | 999.2 |
| 20260504204446 | 75 | 335 | 10.4 | 19.1 | 0.00 | 0.00 | 0.00 | 29 | 999.3 |
| 20260504203945 | 75 | 321 | 5.2 | 20.0 | 0.00 | 0.00 | 0.00 | 30 | 999.3 |
| 20260504203442 | 76 | 335 | 7.0 | 20.0 | 0.00 | 0.00 | 0.00 | 29 | 999.3 |
| 20260504202938 | 76 | 288 | 15.6 | 20.0 | 0.00 | 0.00 | 0.00 | 27 | 999.2 |
| 20260504202435 | 76 | 84 | 9.6 | 26.1 | 0.00 | 0.00 | 0.00 | 26 | 999.5 |
| 20260504201932 | 76 | 256 | 9.6 | 19.1 | 0.00 | 0.00 | 0.00 | 26 | 999.3 |
| 20260504201429 | 76 | 235 | 7.0 | 16.5 | 0.00 | 0.00 | 0.00 | 26 | 999.4 |
| 20260504200927 | 76 | 290 | 6.1 | 14.8 | 0.00 | 0.00 | 0.00 | 27 | 999.4 |
| 20260504200423 | 76 | 277 | 16.5 | 27.8 | 0.00 | 0.00 | 0.00 | 25 | 999.6 |
| 20260504195920 | 76 | 228 | 10.4 | 13.9 | 0.00 | 0.00 | 0.00 | 27 | 999.5 |
| 20260504195416 | 76 | 232 | 13.0 | 20.0 | 0.00 | 0.00 | 0.00 | 26 | 999.5 |
| 20260504194913 | 75 | 230 | 7.8 | 14.8 | 0.00 | 0.00 | 0.00 | 28 | 999.5 |
| 20260504194408 | 75 | 245 | 13.9 | 26.1 | 0.00 | 0.00 | 0.00 | 26 | 999.7 |
| 20260504193905 | 76 | 248 | 12.2 | 19.1 | 0.00 | 0.00 | 0.00 | 28 | 999.4 |
| 20260504193402 | 76 | 284 | 13.0 | 20.0 | 0.00 | 0.00 | 0.00 | 25 | 999.6 |
| 20260504192901 | 76 | 232 | 12.2 | 26.9 | 0.00 | 0.00 | 0.00 | 26 | 999.6 |
| 20260504192358 | 76 | 257 | 7.0 | 20.9 | 0.00 | 0.00 | 0.00 | 28 | 999.6 |
| 20260504191856 | 76 | 232 | 10.4 | 13.0 | 0.00 | 0.00 | 0.00 | 25 | 999.8 |
| 20260504191354 | 76 | 294 | 7.0 | 13.9 | 0.00 | 0.00 | 0.00 | 25 | 999.8 |
| 20260504190849 | 76 | 246 | 16.5 | 19.1 | 0.00 | 0.00 | 0.00 | 24 | 999.7 |
| 20260504190345 | 75 | 292 | 7.0 | 19.1 | 0.00 | 0.00 | 0.00 | 23 | 999.8 |
| 20260504185842 | 75 | 278 | 11.3 | 18.2 | 0.00 | 0.00 | 0.00 | 24 | 999.8 |
| 20260504185339 | 75 | 247 | 8.7 | 16.5 | 0.00 | 0.00 | 0.00 | 23 | 999.9 |
| 20260504184835 | 75 | 277 | 13.9 | 26.9 | 0.00 | 0.00 | 0.00 | 22 | 1000.1 |
| 20260504184331 | 76 | 247 | 13.0 | 18.2 | 0.00 | 0.00 | 0.00 | 23 | 999.9 |
| 20260504183827 | 75 | 278 | 14.8 | 22.6 | 0.00 | 0.00 | 0.00 | 22 | 999.8 |
| 20260504183324 | 76 | 233 | 14.8 | 20.0 | 0.00 | 0.00 | 0.00 | 23 | 999.9 |
| 20260504182822 | 75 | 303 | 13.0 | 15.6 | 0.00 | 0.00 | 0.00 | 24 | 1000.0 |
| 20260504182319 | 75 | 220 | 12.2 | 28.7 | 0.00 | 0.00 | 0.00 | 22 | 1000.3 |
| 20260504181816 | 75 | 224 | 16.5 | 20.9 | 0.00 | 0.00 | 0.00 | 22 | 1000.3 |
| 20260504181314 | 75 | 224 | 7.0 | 13.0 | 0.00 | 0.00 | 0.00 | 24 | 1000.0 |
| 20260504180813 | 74 | 288 | 14.8 | 22.6 | 0.00 | 0.00 | 0.00 | 23 | 1000.4 |
| 20260504180311 | 74 | 285 | 9.6 | 13.9 | 0.00 | 0.00 | 0.00 | 23 | 1000.2 |
| 20260504175808 | 74 | 244 | 17.4 | 22.6 | 0.00 | 0.00 | 0.00 | 22 | 1000.4 |
| 20260504175305 | 74 | 182 | 15.6 | 16.5 | 0.00 | 0.00 | 0.00 | 24 | 1000.3 |
| 20260504174803 | 75 | 220 | 19.1 | 22.6 | 0.00 | 0.00 | 0.00 | 24 | 1000.5 |
| 20260504174300 | 74 | 235 | 11.3 | 14.8 | 0.00 | 0.00 | 0.00 | 26 | 1000.6 |
| 20260504173757 | 74 | 257 | 8.7 | 21.7 | 0.00 | 0.00 | 0.00 | 28 | 1000.7 |
| 20260504173254 | 73 | 312 | 7.0 | 13.9 | 0.00 | 0.00 | 0.00 | 27 | 1000.6 |
| 20260504172750 | 73 | 227 | 12.2 | 16.5 | 0.00 | 0.00 | 0.00 | 28 | 1001.1 |
| 20260504172247 | 73 | 217 | 11.3 | 16.5 | 0.00 | 0.00 | 0.00 | 27 | 1000.8 |
| 20260504171743 | 73 | 247 | 16.5 | 19.1 | 0.00 | 0.00 | 0.00 | 28 | 1001.1 |
| 20260504171240 | 73 | 256 | 11.3 | 14.8 | 0.00 | 0.00 | 0.00 | 26 | 1000.9 |
| 20260504170737 | 73 | 224 | 13.9 | 21.7 | 0.00 | 0.00 | 0.00 | 24 | 1001.0 |
| 20260504170235 | 73 | 235 | 16.5 | 22.6 | 0.00 | 0.00 | 0.00 | 23 | 1001.1 |
| 20260504160153 | 71 | 227 | 10.4 | 15.6 | 0.00 | 0.00 | 0.00 | 34 | 1001.8 |
| 20260504151120 | 67 | 183 | 6.1 | 13.9 | 0.00 | 0.00 | 0.00 | 45 | 1002.7 |
| 20260504150618 | 66 | 201 | 12.2 | 16.5 | 0.00 | 0.00 | 0.00 | 44 | 1002.5 |
| 20260504150115 | 65 | 269 | 9.6 | 13.0 | 0.00 | 0.00 | 0.00 | 47 | 1002.7 |